GFSNE_700_spd_132.txt.gz
Wind_Speed
28 27 28 28 30 32 33 34 38 44 40 41 43 36 32 45 40 42 37 37 37 35 34 32 31 31 32 30 30 31 33 31 33 34 36 39 36 35
29 29 29 29 30 33 34 37 39 43 47 41 37 40 27 46 42 45 39 38 38 37 36 35 34 33 32 32 32 32 35 36 36 36 39 41 42 33
30 30 29 31 32 33 35 35 37 39 45 48 48 43 35 48 40 42 37 39 39 38 36 35 34 33 31 31 34 37 39 38 37 38 42 35 34 36
30 30 30 31 33 32 33 37 36 37 41 40 49 41 42 45 39 39 39 39 38 36 35 34 32 30 30 31 34 41 39 37 40 39 48 44 42 42
30 29 30 33 31 29 31 30 38 39 37 39 38 46 39 45 47 45 39 38 38 38 35 35 32 33 34 35 40 44 38 37 43 47 47 40 40 41
28 29 30 30 32 31 31 38 47 40 42 44 42 36 40 48 49 47 46 42 40 36 32 33 32 32 33 41 45 37 41 35 41 42 41 39 44 43
29 29 29 29 29 32 37 37 37 47 46 54 45 41 37 52 55 46 50 51 44 51 49 40 39 44 49 40 39 41 38 41 45 43 42 43 42 43
29 28 28 27 27 32 36 41 45 48 47 51 49 48 45 51 51 41 45 41 51 41 44 46 42 32 34 35 42 39 42 45 39 45 41 44 45 48
28 28 26 25 27 31 29 28 34 44 42 46 43 41 45 52 49 50 39 41 45 33 35 37 39 36 35 39 37 38 35 38 40 42 45 47 49 47
28 27 26 24 26 28 25 23 26 34 41 42 36 35 30 34 43 43 42 41 46 43 34 37 36 39 44 41 37 40 41 44 45 49 50 45 44 39
28 27 26 24 24 28 25 21 17 22 26 26 23 31 36 28 37 41 43 32 41 35 42 43 38 34 39 44 43 44 43 47 47 45 43 39 34 29
30 28 26 24 25 25 29 24 23 15 13 21 25 25 30 35 24 21 32 32 45 33 35 46 42 40 42 42 43 47 46 43 40 38 34 30 27 25
28 28 24 23 24 24 25 23 19 17 12 16 21 30 24 22 25 32 36 40 35 35 38 34 42 40 43 47 49 44 39 34 31 28 27 25 23 20
25 26 24 22 21 25 22 19 17 15 12 14 21 21 28 33 24 30 31 28 35 31 32 37 39 43 46 47 43 34 28 27 27 25 23 21 19 18
25 23 22 22 23 29 20 22 18 18 19 21 18 20 23 21 23 25 28 29 34 35 37 41 42 44 38 32 29 26 24 23 21 19 19 19 18 18
21 24 21 29 28 27 24 23 23 23 22 22 24 27 27 28 31 34 32 33 33 36 38 34 29 27 26 24 23 22 20 16 17 17 18 17 18 18
25 30 28 33 29 28 28 28 30 32 31 30 31 34 36 34 34 32 32 33 30 27 25 24 24 23 21 19 17 16 14 15 17 18 17 18 18 20
30 35 32 33 33 32 31 29 30 31 31 33 35 38 28 27 26 25 22 20 20 20 20 19 19 18 16 14 13 14 15 16 17 17 17 19 20 20
26 30 33 30 32 40 33 32 34 23 24 24 21 16 16 16 17 17 18 17 16 16 15 13 13 13 12 13 15 14 14 15 17 18 18 19 21 23
7 6 10 12 12 13 15 16 15 13 12 15 16 15 17 17 17 16 15 14 13 11 11 11 11 12 13 13 13 14 14 16 18 19 20 20 19 20
6 5 4 6 8 7 7 8 10 11 11 11 11 11 12 12 11 11 10 9 9 10 10 11 11 12 12 13 14 15 16 17 19 20 21 20 20 22
5 6 6 7 7 7 6 6 7 7 8 9 9 10 10 8 7 6 7 8 9 10 10 11 11 12 13 15 17 18 19 19 20 21 21 22 22 22
3 2 2 3 3 4 4 4 5 5 6 6 6 6 5 6 7 7 8 9 10 10 11 11 12 14 15 16 17 18 19 20 21 24 27 26 25 24

GFSNE_700_spd_135.txt.gz
Wind_Speed
35 32 29 27 27 27 28 30 31 35 35 35 33 31 35 34 33 32 45 38 38 38 37 35 35 33 32 32 32 32 32 31 31 32 33 35 35 35
36 35 31 30 29 29 30 30 31 35 37 37 35 35 35 36 34 30 38 45 49 47 42 37 38 37 34 35 35 35 34 33 33 33 37 39 35 35
36 36 33 32 30 30 30 30 33 32 39 38 39 36 35 39 32 33 36 48 53 49 45 42 41 40 36 37 36 35 35 34 33 37 44 42 36 36
37 36 34 33 31 31 29 30 30 31 33 39 37 37 34 35 33 35 40 39 47 47 46 44 42 42 38 36 35 34 35 33 34 46 41 40 37 42
35 34 33 32 31 30 30 29 28 30 30 31 37 40 38 32 32 35 38 45 43 44 41 47 39 36 36 35 35 35 34 34 38 44 43 36 37 40
32 32 31 32 30 29 30 28 28 31 32 36 41 41 40 40 33 33 38 46 46 41 45 48 40 40 38 36 35 35 35 44 38 46 43 38 40 39
30 31 31 30 30 29 28 26 28 31 35 38 46 46 42 40 41 39 40 47 52 44 55 49 44 41 42 35 40 38 34 42 47 41 40 42 44 41
28 29 29 29 28 27 26 26 29 34 38 42 49 49 43 47 43 45 36 51 60 50 51 47 43 45 47 39 35 41 42 46 42 41 44 43 40 41
29 29 29 28 27 26 26 27 30 31 29 33 38 49 51 43 40 41 46 44 58 53 46 53 47 43 49 51 51 46 40 39 44 43 39 43 46 46
26 27 27 26 26 26 27 27 31 30 29 26 33 37 44 38 39 39 35 45 53 41 40 48 47 50 41 41 48 46 41 41 43 40 39 42 45 44
29 28 27 26 27 28 27 27 28 28 29 31 34 34 29 34 29 27 21 48 49 39 43 47 43 50 44 45 42 41 40 44 45 41 42 45 40 37
26 28 28 27 28 28 28 27 28 29 29 27 28 21 15 21 22 28 37 42 39 41 35 47 46 50 47 43 45 44 39 42 41 42 45 40 34 28
19 21 24 27 29 30 27 25 23 28 25 23 25 19 19 16 18 23 26 25 37 40 45 34 45 40 39 39 47 38 35 39 43 42 40 33 27 24
24 23 20 23 26 26 26 24 25 28 23 20 17 14 14 17 20 18 22 22 25 32 35 35 43 40 35 37 46 45 42 41 41 37 29 25 23 21
26 31 25 22 18 21 25 24 23 22 23 22 18 18 16 16 25 21 22 27 29 28 29 30 35 36 33 37 42 40 39 37 30 26 23 21 18 18
32 30 26 25 21 27 27 29 28 25 22 21 21 20 18 19 21 24 22 22 27 31 32 37 42 39 38 36 35 32 29 25 23 21 19 17 18 19
29 27 26 25 27 28 28 31 32 29 29 31 29 26 28 26 29 31 30 28 30 33 35 37 37 34 30 27 25 24 21 21 19 16 16 17 18 19
28 25 29 33 31 33 36 34 29 30 32 33 29 31 32 32 30 27 27 27 28 27 26 24 23 21 20 19 18 18 16 14 15 16 17 18 19 20
17 18 24 28 28 26 27 26 28 30 29 33 30 29 28 23 21 20 20 20 20 20 18 17 16 15 14 13 12 11 13 14 15 16 17 18 20 20
3 3 4 5 9 13 14 16 19 21 20 17 16 14 14 13 13 14 13 13 13 13 12 11 10 8 8 10 11 12 13 15 16 16 16 17 19 21
11 9 6 2 2 5 5 4 5 6 6 6 7 7 8 8 9 9 9 9 9 8 6 4 5 9 11 11 11 12 14 15 16 17 17 17 19 20
4 5 5 6 5 5 4 3 1 2 3 3 4 4 5 6 7 7 6 5 4 4 6 8 9 10 10 11 13 14 15 16 17 17 18 18 19 19
3 2 2 1 1 0 1 1 1 2 2 2 3 4 4 4 3 3 4 5 5 6 7 9 9 10 12 13 15 15 16 17 19 19 18 19 20 21

GFSNE_700_spd_141.txt.gz
Wind_Speed
29 29 32 34 35 37 34 33 29 25 26 25 24 22 27 29 32 32 32 32 32 34 33 38 35 37 40 40 42 40 40 39 37 36 34 34 36 34
33 30 31 34 36 35 34 30 29 28 27 27 27 24 23 28 31 34 34 33 32 33 31 32 32 39 40 42 42 42 43 42 39 39 37 36 38 38
39 36 34 35 39 39 39 39 39 35 29 29 31 29 26 27 28 33 35 36 34 33 34 33 40 36 43 42 44 43 45 45 42 41 38 40 39 41
42 40 37 35 38 44 48 47 45 39 35 33 33 34 33 30 34 29 34 36 35 35 31 31 31 41 38 46 51 47 48 47 43 43 41 42 40 41
46 43 40 38 41 39 42 42 42 39 37 36 36 34 31 32 33 34 34 33 36 36 36 37 38 38 47 44 51 49 56 54 50 46 43 44 43 45
51 48 53 48 39 39 39 40 40 39 37 31 32 33 31 31 32 33 35 35 37 37 37 36 39 40 45 55 58 61 50 52 55 45 44 46 45 45
53 49 48 48 44 41 42 41 40 35 36 36 33 34 32 30 30 33 33 34 38 39 44 38 43 43 41 45 50 44 51 48 53 45 45 47 43 43
49 52 44 42 46 45 40 38 38 32 33 35 36 36 33 29 31 32 33 32 33 34 42 47 48 41 46 43 45 55 54 44 43 42 44 47 47 49
54 55 59 44 46 38 40 37 36 38 39 37 37 34 32 30 31 32 32 35 37 36 37 40 41 39 44 43 45 57 52 42 47 49 55 48 47 49
49 53 52 45 26 26 28 29 32 34 36 35 35 32 33 31 33 35 36 36 38 37 37 41 40 40 41 39 42 60 52 46 51 51 44 48 48 54
46 35 40 38 22 23 29 30 33 35 34 34 33 33 32 32 33 35 33 33 32 29 34 35 35 34 33 34 39 52 51 52 48 48 50 52 52 48
21 25 25 25 24 29 32 36 34 33 33 33 32 32 32 32 32 32 31 31 31 33 33 32 35 34 35 34 38 48 54 51 50 50 46 51 50 49
21 25 25 24 25 26 25 28 31 32 31 32 32 32 33 31 29 29 29 28 29 28 24 28 28 28 32 28 31 44 43 42 43 41 43 46 45 47
21 18 24 21 25 22 21 22 26 28 31 33 32 28 28 29 27 30 26 25 22 23 26 23 23 24 26 23 31 38 33 31 38 44 43 42 43 43
26 23 22 26 23 25 25 20 21 25 29 26 28 30 28 27 29 28 24 24 22 23 23 21 23 25 22 23 34 43 42 35 36 38 36 36 34 30
26 31 27 27 29 28 28 29 24 23 24 28 28 27 27 28 27 27 26 26 27 27 28 27 25 24 24 26 33 35 39 38 33 34 30 27 25 24
28 26 22 27 28 26 26 33 31 33 29 30 29 30 30 31 32 32 33 34 33 33 32 30 30 30 29 30 30 32 32 31 31 27 24 21 19 17
18 23 27 28 30 31 25 22 25 28 29 31 30 34 35 36 37 39 37 35 34 34 32 29 26 24 24 23 22 22 21 20 19 17 15 15 17 19
15 17 18 20 23 23 26 28 29 30 31 30 29 28 30 30 30 28 27 28 27 23 19 16 15 13 12 12 11 10 10 10 12 13 15 16 15 12
2 5 6 5 5 7 8 9 9 10 13 16 19 20 18 16 17 16 14 12 10 9 7 7 6 6 7 7 8 10 12 14 14 13 11 11 12 14
9 10 10 10 8 6 5 6 6 7 6 6 5 5 4 3 2 1 4 5 5 6 6 7 7 8 10 11 9 9 9 8 8 9 11 13 15 17
5 6 7 8 9 10 10 10 9 8 7 6 6 7 6 5 5 6 5 6 7 7 8 9 10 9 9 7 6 6 7 9 10 12 13 15 16 18
2 3 4 5 6 6 6 6 6 6 6 7 7 6 5 5 5 6 7 7 7 8 8 8 7 7 7 7 8 9 10 11 12 13 15 16 18 19

GFSNE_700_spd_144.txt.gz
Wind_Speed
29 29 27 27 29 28 27 28 28 32 31 29 24 18 21 23 23 24 25 27 28 28 28 29 29 33 33 40 44 44 41 40 40 40 39 39 38 38
31 30 28 26 28 28 28 27 28 29 31 31 25 22 21 22 25 25 25 27 30 30 31 31 32 32 31 33 35 34 40 42 42 43 42 41 41 40
34 32 30 30 29 29 27 29 30 32 33 29 27 29 27 26 22 23 26 28 32 32 31 34 33 33 34 36 40 38 41 41 45 44 43 44 43 43
34 35 33 35 33 33 31 30 30 35 35 37 39 37 34 32 30 30 29 30 32 32 33 33 34 33 33 33 34 42 44 43 49 49 47 47 45 46
37 39 37 39 38 39 36 32 36 36 41 46 47 42 38 38 35 34 31 29 29 30 33 32 33 37 34 36 36 47 50 49 46 43 52 53 49 48
39 40 41 44 42 41 42 39 45 43 37 38 36 38 40 39 33 32 33 31 30 32 33 34 33 37 39 37 39 41 45 51 54 58 56 50 50 52
46 47 48 48 46 46 44 41 41 44 42 37 39 38 39 38 37 35 31 31 31 33 33 34 35 41 43 44 43 43 45 46 51 51 53 51 49 55
46 49 49 48 49 46 45 42 46 45 51 47 38 33 37 39 33 31 32 33 33 32 34 34 37 37 41 44 51 48 44 47 47 47 50 50 42 46
44 44 49 50 46 47 48 44 52 45 47 43 39 35 36 37 35 34 34 33 33 33 36 39 38 40 40 42 43 48 42 42 37 58 57 53 43 43
45 46 46 46 48 47 48 52 54 41 37 33 38 42 42 39 37 35 34 33 33 33 36 39 35 32 33 38 43 46 44 43 41 48 60 60 45 42
44 45 44 47 53 40 50 50 43 38 38 28 33 34 35 33 33 34 31 33 33 33 34 36 32 33 34 35 37 39 33 34 34 35 50 43 43 46
42 43 50 39 36 35 34 29 26 21 23 28 31 31 31 31 32 31 31 31 33 34 33 31 31 31 33 31 30 30 34 32 29 33 42 38 43 43
25 28 13 27 23 20 18 21 22 27 32 36 34 31 31 32 31 31 31 31 30 31 32 30 27 29 27 26 27 29 24 17 17 25 39 33 36 40
22 22 15 17 23 21 21 20 22 21 20 24 27 28 29 29 29 28 28 29 29 28 28 19 22 26 24 25 27 23 18 15 16 20 25 32 35 40
17 22 23 14 20 21 21 20 20 18 23 22 23 28 30 30 28 29 27 30 29 25 23 24 28 28 29 25 26 24 20 16 20 27 29 30 32 33
24 22 20 22 21 21 20 23 23 22 22 22 21 22 24 28 25 26 29 25 27 29 30 28 30 32 31 30 27 26 23 23 29 32 27 27 24 24
22 19 20 23 27 25 25 23 23 25 25 28 28 29 29 29 27 29 30 31 32 32 35 35 32 32 33 31 28 26 23 23 24 23 22 21 20 18
18 24 26 20 21 20 25 22 23 24 21 27 29 30 29 29 28 30 33 32 33 34 32 31 32 29 26 22 19 17 15 14 14 14 14 13 13 13
11 12 15 18 19 25 23 22 24 22 24 27 29 31 31 29 29 28 27 24 20 18 17 16 15 14 12 10 9 7 8 8 8 8 8 9 10 10
6 8 9 9 9 10 11 12 12 10 10 11 11 11 13 13 14 13 11 9 6 3 1 1 1 0 3 3 2 3 5 7 8 9 10 12 12 9
6 7 7 7 6 6 6 6 6 5 5 6 6 5 5 5 5 5 4 5 4 3 3 4 4 4 4 4 4 6 7 8 10 10 10 9 10 10
4 4 5 7 9 11 11 11 10 9 9 8 8 8 8 7 8 8 7 6 5 6 7 7 7 7 7 7 6 6 7 7 7 7 9 11 13 14
1 1 2 3 4 5 6 6 7 8 8 7 8 8 8 8 8 7 7 6 6 6 5 5 6 6 7 7 6 6 7 8 9 11 13 14 16 17

GFSNE_700_spd_147.txt.gz
Wind_Speed
46 39 35 33 32 31 30 28 25 25 22 21 19 18 17 17 17 16 16 18 20 22 24 27 26 27 27 26 26 30 36 42 42 40 43 40 40 40
47 41 38 35 31 31 30 29 27 24 23 21 21 21 19 19 16 17 17 19 22 23 25 24 25 27 29 30 32 29 35 34 38 39 40 38 42 42
48 43 39 35 30 29 30 27 24 23 21 22 21 22 23 23 20 18 20 21 21 23 26 27 27 27 31 32 32 33 36 35 44 45 37 40 45 46
48 44 40 36 32 30 30 28 25 23 22 21 22 26 29 29 29 29 31 26 28 28 30 30 30 31 33 32 34 35 34 34 31 45 43 44 46 50
47 44 41 38 34 34 33 31 29 27 26 25 21 22 30 35 37 37 38 36 32 29 28 29 30 30 32 34 34 36 37 36 38 38 42 49 47 47
44 43 41 37 34 33 35 33 32 32 31 31 31 27 29 36 38 35 36 35 31 30 29 29 30 29 29 33 34 38 41 43 42 45 46 46 53 52
44 43 42 39 37 38 37 37 37 36 37 36 34 32 32 31 38 35 35 38 35 34 32 31 30 30 33 34 35 38 44 48 50 49 51 51 57 56
43 47 44 42 41 39 40 40 41 40 41 38 37 38 36 36 34 44 47 42 33 32 33 31 32 32 34 38 39 41 44 44 50 53 52 52 52 59
37 37 40 40 42 42 41 41 43 46 45 44 42 40 40 42 48 48 40 36 32 35 33 33 34 33 36 38 38 36 38 42 43 46 48 54 54 49
36 39 43 44 45 39 44 45 49 50 49 46 44 42 45 49 46 45 41 37 37 36 34 35 35 36 36 39 39 37 36 34 37 43 45 42 47 44
30 39 35 37 39 40 40 50 53 48 48 40 42 47 45 34 33 32 34 36 36 34 33 35 34 35 35 38 36 31 34 32 33 33 33 35 35 33
33 33 28 32 46 44 45 47 52 51 46 44 46 38 43 41 30 27 29 31 32 31 31 34 33 34 35 33 32 33 29 27 29 29 30 32 27 20
26 33 30 42 47 42 41 34 37 30 29 29 26 21 20 21 23 25 28 31 30 30 31 31 31 31 31 29 28 29 28 25 23 20 15 16 17 27
28 29 43 30 24 31 27 26 19 20 22 22 22 24 25 27 27 30 30 29 27 28 31 29 27 26 25 25 30 30 31 26 22 21 14 10 10 15
19 21 28 20 15 14 18 20 21 23 22 21 20 21 20 24 25 26 27 30 24 26 28 24 23 21 25 29 32 31 30 28 28 23 19 16 18 19
17 14 14 22 22 17 18 20 20 18 17 18 23 23 25 26 26 25 24 23 24 27 26 26 26 25 28 30 32 30 31 30 30 27 25 25 24 22
16 12 18 17 15 21 22 16 21 20 23 23 21 22 23 23 25 24 25 27 29 29 28 30 30 35 30 28 30 29 28 26 23 20 18 18 17 15
21 22 21 17 17 17 19 21 23 20 21 21 20 22 25 26 28 29 30 30 30 30 33 35 30 27 26 24 22 19 18 13 11 10 9 9 9 9
10 10 12 20 18 16 18 18 18 22 23 20 22 24 24 26 27 29 31 28 25 24 22 21 19 18 15 11 8 7 8 8 8 9 10 10 10 12
8 11 11 12 14 18 19 20 20 23 24 25 26 25 21 17 16 15 15 15 15 13 11 9 8 7 6 5 6 4 4 5 5 6 5 7 8 9
4 5 6 6 7 7 8 8 9 10 11 11 11 10 9 9 9 9 9 8 8 8 8 8 8 9 8 7 5 5 6 7 9 8 7 8 9 10
2 3 4 6 8 9 9 8 8 8 9 9 9 8 8 9 9 10 10 10 9 9 9 10 10 10 9 7 5 5 7 8 7 8 9 10 11 11
1 3 2 4 5 5 6 7 8 8 8 8 8 8 9 9 10 11 11 10 10 9 9 8 8 7 6 6 6 7 9 9 9 10 11 12 13 14